Wind_Speed
43 43 43 43 43 41 40 39 38 37 37 36 35 35 34 32 31 31 30 29 29 29 29 28 28 28 27 27 26 26 25 25 25 24 24 24 24 24 24 24 24 24 24 23 23 23 23 23 23 22 22 22 22 23 23 22 22 21 20 20 20 20 21 21 21 21 20 20 21 22 22 23 23 23 20 17 15 14 14 17 21 23 23 21 20 18 17 17
44 44 44 44 44 43 42 41 40 39 38 38 37 36 34 33 32 31 31 30 30 30 30 30 29 29 28 28 27 27 26 26 26 25 25 25 24 24 24 24 24 24 24 24 24 23 23 23 23 23 23 23 23 23 24 24 23 22 22 21 21 21 22 22 22 22 21 21 22 22 22 23 24 24 23 19 18 17 14 13 18 23 26 27 26 24 22 20
45 45 44 45 45 44 44 43 42 41 40 39 38 36 35 34 33 32 32 31 31 31 31 30 30 29 29 29 28 28 27 27 27 27 26 25 25 25 24 24 24 25 25 25 24 24 24 24 24 24 24 23 24 25 25 24 24 23 23 22 22 22 22 22 22 22 22 22 22 22 22 23 25 25 25 22 21 20 17 13 15 19 24 28 30 30 28 26
45 46 45 45 45 45 46 45 44 43 41 40 39 38 37 36 35 34 33 33 32 32 32 31 30 30 30 30 29 29 29 28 28 28 27 26 25 25 25 25 25 25 25 26 25 25 25 25 25 25 24 24 24 25 26 25 24 24 24 24 23 22 23 23 23 23 23 22 22 22 22 23 25 25 25 25 23 22 21 18 16 17 20 24 28 31 32 32
45 46 46 46 45 46 46 47 46 45 43 42 41 40 39 38 36 35 34 34 33 33 33 32 31 31 31 31 30 30 30 30 30 29 28 27 27 26 25 25 26 26 27 27 26 26 26 25 25 25 25 25 25 26 27 26 25 25 25 25 24 23 23 24 24 24 24 24 23 23 22 23 25 25 26 26 25 25 24 23 21 19 20 21 24 27 30 32
46 46 47 47 47 46 47 48 47 47 46 44 43 42 41 39 37 36 35 35 35 34 34 33 32 32 32 32 31 31 31 31 32 30 29 28 28 27 27 27 27 27 28 28 28 27 27 26 26 26 26 26 26 27 28 28 27 26 26 26 26 24 24 25 26 26 26 25 25 25 23 24 25 25 25 26 26 27 27 26 25 24 23 23 23 24 26 27
47 47 47 47 47 47 47 48 48 48 48 47 46 44 43 41 39 38 37 37 36 36 35 34 33 33 33 32 32 32 31 31 33 31 30 30 29 28 28 28 28 29 29 29 29 29 28 28 27 27 27 26 26 27 28 28 28 28 27 27 27 26 25 26 26 27 28 27 27 27 26 26 27 25 25 25 27 28 29 29 29 28 27 26 26 26 26 26
48 48 48 47 48 48 48 48 48 49 49 49 48 46 44 42 40 39 38 38 38 37 37 35 35 34 34 33 33 33 32 31 33 32 31 30 30 30 30 30 30 30 30 31 31 31 30 30 29 29 28 28 27 27 28 29 29 29 29 28 28 28 27 27 27 27 28 28 29 30 29 29 29 27 27 26 27 29 30 32 32 31 31 30 29 29 29 28
48 48 48 48 48 48 48 48 48 49 49 50 49 48 46 44 42 41 40 40 40 39 38 36 36 35 35 35 34 34 32 31 33 32 32 31 31 31 31 32 32 32 32 32 32 32 32 32 31 31 31 30 29 29 29 29 30 30 30 30 29 29 29 29 29 28 29 29 30 31 31 32 32 30 29 30 29 30 32 33 34 34 34 33 32 32 32 32
48 48 49 49 48 48 48 49 49 49 49 50 50 49 48 46 44 43 42 41 41 40 39 38 37 36 36 36 36 35 32 32 33 33 33 32 32 33 33 33 34 33 33 33 33 33 33 33 33 33 33 33 32 31 31 31 32 32 32 32 31 31 31 31 31 31 31 31 31 33 34 35 35 32 32 33 32 32 34 36 36 36 36 36 35 35 35 35
48 48 49 49 49 48 48 49 49 49 49 50 50 50 49 48 46 45 44 43 42 41 41 39 38 37 37 37 38 36 32 33 34 33 34 34 33 34 34 34 34 34 34 34 34 34 34 34 34 34 34 35 34 33 33 33 33 33 34 34 33 33 33 32 34 34 33 33 33 35 37 38 37 34 34 35 34 33 35 37 38 37 37 37 37 38 37 37
50 49 49 50 50 50 49 49 49 50 50 50 50 50 50 50 48 47 46 44 43 42 42 41 39 38 38 38 40 37 34 35 35 34 35 35 35 35 35 35 35 35 35 35 35 35 34 35 35 35 36 36 36 35 35 34 34 34 34 35 35 34 35 35 35 36 35 34 35 36 40 41 38 35 36 35 35 35 36 38 38 37 37 37 37 38 38 38
52 51 51 50 51 51 50 50 50 50 50 50 50 50 51 51 50 49 48 46 44 43 43 41 40 39 39 40 41 38 37 37 37 36 36 36 37 36 36 36 36 36 36 35 35 35 35 36 36 36 37 37 37 37 36 36 35 35 35 36 37 36 38 37 36 37 36 36 36 37 41 44 40 36 36 36 36 36 37 37 37 37 37 37 37 37 38 38
54 53 52 52 52 52 51 51 50 50 50 51 51 51 51 52 52 51 50 48 46 45 43 42 41 40 40 42 42 40 40 40 38 38 38 38 38 37 37 37 37 36 36 36 36 36 36 36 36 36 37 38 38 38 36 36 36 36 35 37 38 39 40 39 37 37 36 36 37 37 40 45 41 36 36 36 36 37 37 37 37 37 37 37 38 38 38 38
55 55 54 53 53 52 52 52 51 51 51 51 51 51 51 52 53 53 52 50 48 46 44 43 42 41 41 43 43 42 42 41 40 40 39 39 38 38 38 37 37 37 37 37 37 37 36 36 36 37 38 38 38 37 35 35 36 37 36 37 39 40 41 41 38 37 35 35 36 37 39 43 42 37 35 36 36 37 37 37 37 38 38 38 39 39 40 40
56 56 55 55 54 53 53 52 52 52 51 51 51 51 52 53 53 54 54 53 51 48 46 44 43 43 43 45 45 44 44 42 42 41 40 39 39 39 38 38 38 38 38 38 38 38 37 36 37 37 38 39 38 36 33 34 37 37 35 37 38 40 42 42 40 37 35 35 35 36 38 41 42 39 36 36 37 37 37 38 39 39 40 40 40 41 41 42
57 57 56 56 55 54 53 53 53 53 53 52 52 52 52 53 54 55 55 55 53 51 48 46 46 44 44 46 47 46 45 43 43 42 41 40 40 40 39 39 39 39 39 39 39 39 38 37 38 38 40 41 39 35 33 36 38 36 35 36 37 39 41 43 42 38 35 35 35 36 37 39 42 40 38 38 39 39 39 40 40 41 41 41 41 41 41 41
58 58 57 57 56 56 55 54 54 54 54 54 53 53 53 53 54 55 56 56 55 53 51 48 47 46 46 48 48 47 46 44 44 42 41 42 41 41 41 40 40 40 40 40 40 39 38 38 38 40 42 42 39 36 36 38 39 38 36 36 36 38 40 43 43 39 36 36 36 37 37 39 41 40 39 40 41 40 41 41 41 41 42 42 42 42 42 43
58 59 58 58 58 57 56 56 55 55 55 55 54 54 53 53 54 54 55 56 56 56 53 51 49 48 48 49 49 48 47 45 44 43 42 43 42 42 41 41 41 41 41 40 40 39 38 38 39 42 45 42 39 38 39 40 40 39 38 38 38 39 41 43 42 39 37 37 38 38 37 39 42 41 40 41 42 42 42 42 42 43 44 45 45 45 46 46
59 59 59 59 59 58 57 57 56 56 56 55 55 54 54 54 54 54 55 55 57 57 55 53 52 50 50 50 50 49 48 46 44 44 44 43 43 42 42 42 42 42 41 41 39 39 39 37 39 45 45 41 39 40 41 41 41 41 41 40 40 40 42 44 42 40 39 38 39 41 39 40 42 43 43 43 44 45 45 45 46 47 48 49 49 49 49 50
59 60 60 60 59 58 58 58 58 57 57 56 56 55 55 56 55 54 55 55 56 57 56 55 53 52 52 51 50 49 48 46 46 45 45 44 43 43 43 42 42 42 42 40 39 40 39 37 41 46 43 40 41 42 42 42 42 42 42 42 42 43 45 45 44 42 41 40 41 43 42 43 44 45 46 47 47 48 49 49 50 52 53 53 53 53 54 54
59 60 60 60 59 58 58 58 58 58 58 57 56 56 57 57 55 55 55 54 55 56 56 56 54 54 54 52 51 50 48 47 47 47 46 46 45 44 44 43 43 43 42 41 41 40 38 38 43 45 41 41 42 42 43 43 43 44 44 44 44 46 46 46 46 45 44 43 43 44 45 47 48 48 50 51 51 52 52 53 54 55 55 55 56 56 57 57
58 59 61 60 60 59 58 58 59 59 58 57 57 57 58 57 56 56 55 54 55 55 55 56 56 55 56 54 52 50 48 48 49 48 48 47 47 46 44 44 44 43 42 43 42 40 38 40 44 45 43 43 43 44 44 45 45 45 45 45 46 47 47 47 48 48 47 47 46 47 48 49 51 52 53 54 54 55 55 55 56 57 57 57 56 57 57 57
57 59 61 61 61 59 59 59 59 59 59 58 58 59 59 58 57 57 57 55 54 55 56 56 56 56 57 55 53 51 50 50 49 49 50 49 49 48 46 47 46 44 45 45 43 40 40 44 47 47 46 45 45 46 47 47 47 46 46 47 47 48 48 47 49 49 49 49 50 50 50 50 53 54 55 56 57 58 58 58 59 59 59 58 58 58 58 58
57 59 60 61 61 60 60 59 59 60 59 59 59 60 59 59 59 58 58 55 52 54 57 56 56 57 57 56 54 53 52 50 51 52 53 51 51 50 49 48 47 46 48 47 44 43 44 49 50 48 48 47 47 48 49 49 47 46 47 48 48 48 49 49 49 50 50 50 51 52 50 50 53 55 57 59 60 59 60 60 61 61 60 60 60 60 59 59
58 59 59 61 62 62 60 59 61 61 60 60 60 60 60 59 60 59 60 57 50 52 58 57 56 56 57 58 57 57 54 51 53 55 55 54 53 52 50 49 49 49 50 49 46 45 48 52 51 49 49 49 49 49 49 48 46 46 48 48 47 47 48 49 49 49 49 50 51 52 52 52 54 56 58 60 60 60 61 62 62 62 62 63 63 63 63 63
60 59 59 60 61 62 61 60 62 62 61 62 61 61 61 60 61 60 61 59 49 49 56 57 57 56 58 60 59 59 56 53 57 58 57 57 55 54 52 51 51 51 52 51 48 48 51 53 52 51 51 50 51 51 50 49 47 48 49 49 47 47 47 47 47 47 48 49 50 52 54 54 55 57 59 59 60 61 62 63 64 64 65 65 65 65 66 66
61 62 60 59 60 61 60 61 62 62 63 63 63 63 62 62 62 61 63 59 46 45 52 56 58 58 58 61 62 62 59 57 60 60 59 59 56 55 54 53 53 52 53 52 50 51 53 53 53 52 51 51 52 52 50 49 49 49 49 49 47 46 46 46 46 46 47 48 49 53 56 56 56 59 60 60 61 63 64 65 65 65 65 64 64 64 65 65
63 63 62 62 61 60 61 61 62 64 65 64 66 66 65 65 64 63 64 55 42 42 50 54 58 60 60 62 63 64 63 62 62 61 61 60 58 57 56 54 54 54 55 54 53 53 54 54 53 52 51 52 52 51 50 50 49 50 50 49 48 47 46 46 45 46 46 46 48 55 58 57 57 59 61 61 62 64 65 66 66 65 66 66 66 66 66 66
65 64 65 65 63 62 62 63 65 67 66 67 68 67 67 68 66 67 62 48 40 44 49 53 57 59 61 63 64 66 66 65 65 63 63 62 60 58 57 56 56 56 56 55 55 55 55 54 53 52 52 52 52 51 52 51 50 51 51 50 50 49 49 48 47 48 47 46 48 55 58 58 58 59 62 63 65 66 68 68 68 70 71 72 73 73 73 72
67 65 65 64 62 63 63 64 66 68 67 68 68 68 68 68 69 69 57 44 45 47 47 51 54 57 61 64 66 68 68 68 67 65 65 63 62 59 58 58 58 58 57 56 57 57 56 55 54 53 53 53 53 54 54 53 53 53 53 52 52 51 51 51 51 53 52 50 51 54 55 56 57 60 64 66 68 70 72 73 75 77 79 79 80 80 80 79
69 67 66 64 62 61 61 63 67 68 67 68 68 68 69 71 72 64 52 49 52 49 46 51 54 57 62 64 66 68 68 69 68 67 66 64 62 60 60 59 59 59 58 57 59 58 56 55 54 54 54 55 56 56 56 56 55 56 56 56 56 56 56 56 56 57 56 55 56 57 57 57 57 61 65 67 70 71 73 75 77 79 80 80 80 81 81 82
72 70 68 66 63 61 61 64 68 68 66 67 69 69 72 75 68 57 53 56 56 51 50 54 56 59 63 64 65 67 67 68 68 67 66 64 62 61 60 60 60 59 58 58 59 58 56 56 56 56 57 57 57 57 58 58 58 59 60 61 61 61 61 60 60 61 60 60 60 60 61 61 61 64 67 69 71 72 73 76 77 77 78 78 79 80 80 81
73 73 71 69 66 65 64 66 67 66 66 68 68 71 75 73 63 57 59 60 58 57 57 57 59 61 62 63 64 64 65 66 66 67 66 64 62 61 60 60 59 59 58 59 59 59 58 57 58 59 59 59 60 60 60 61 61 62 63 64 64 65 67 65 65 65 64 64 62 62 63 64 65 67 69 70 73 74 75 76 77 77 78 80 80 80 80 79
75 76 75 72 69 67 67 68 68 68 69 69 70 74 74 66 60 61 63 62 62 62 60 60 60 60 60 61 62 63 64 64 65 66 65 63 61 60 60 60 60 60 60 61 61 61 60 59 60 62 62 63 63 63 64 64 64 64 65 66 67 69 71 70 69 68 68 67 64 64 66 67 68 69 69 72 74 76 77 77 78 79 79 81 81 81 81 80
77 78 78 75 70 68 70 71 71 72 73 73 75 77 70 62 61 64 64 64 64 62 61 62 60 58 59 60 61 62 63 64 64 64 63 62 61 60 60 61 62 62 63 64 64 62 61 61 63 65 65 66 66 66 66 66 66 66 67 69 70 73 74 73 72 71 71 70 66 66 68 70 71 71 72 76 78 79 79 79 80 82 82 83 84 84 83 83
79 79 80 77 72 72 72 73 74 76 77 79 81 79 71 65 64 64 63 65 64 63 64 64 62 60 59 59 61 62 63 64 64 63 63 62 61 60 62 64 65 65 67 68 66 64 64 64 65 66 67 67 67 67 67 67 68 69 70 72 74 76 76 76 75 73 73 72 69 68 71 72 74 74 76 79 80 81 82 83 84 85 86 86 86 86 86 86
83 82 81 78 76 77 76 76 77 79 81 84 85 80 74 69 66 63 62 63 64 64 65 65 65 64 62 61 62 63 65 64 63 63 63 63 63 62 65 68 68 69 70 71 69 67 66 66 65 66 67 68 68 68 68 69 71 72 73 74 76 76 76 76 76 75 76 76 74 72 73 74 75 78 79 81 82 85 86 86 87 88 88 89 89 89 89 88
88 87 83 79 79 81 80 79 80 81 84 87 86 81 75 72 68 65 64 63 65 66 65 65 66 66 65 64 64 66 67 65 65 65 65 65 66 66 69 71 72 73 74 73 71 69 68 67 66 66 68 69 70 71 71 73 74 74 74 74 75 77 77 78 79 79 80 81 79 76 74 73 75 79 81 82 83 86 88 88 89 89 90 91 91 91 90 90
93 92 86 80 80 82 83 84 86 87 88 87 84 79 75 73 71 69 67 65 66 67 66 66 67 66 65 66 67 69 70 69 69 69 69 69 70 70 72 74 75 76 76 75 72 70 70 69 68 68 70 70 71 72 73 75 75 75 75 75 76 79 81 82 81 81 82 83 82 80 75 71 73 78 80 82 84 86 88 89 90 91 92 92 92 91 92 94
96 95 87 82 82 83 85 88 91 91 90 87 83 79 75 73 72 71 70 69 68 69 70 71 71 69 67 67 67 69 72 73 73 72 72 72 73 74 75 77 78 78 78 76 74 73 72 72 70 70 70 71 72 73 75 76 76 76 77 77 79 81 83 83 83 82 84 86 85 85 80 72 73 78 81 84 85 87 89 90 92 92 92 92 93 94 96 98
98 96 90 86 87 87 88 91 93 93 92 88 84 82 79 76 75 74 73 73 72 72 72 74 75 74 73 71 70 70 72 74 75 76 76 76 77 79 80 80 81 81 82 81 79 79 78 76 74 72 72 74 75 76 77 78 79 79 79 80 81 83 84 86 87 86 89 90 89 91 87 77 76 82 86 89 90 90 91 91 92 92 93 95 97 98 99 100
100 98 94 92 91 91 93 95 95 94 93 90 87 85 83 80 78 77 76 76 77 77 76 75 75 76 76 76 75 74 74 75 74 75 76 78 80 81 83 83 83 83 83 83 83 83 83 81 78 77 77 78 79 79 80 80 81 82 83 83 85 86 87 91 92 93 95 94 92 96 93 82 81 87 91 94 95 93 93 93 93 95 97 99 100 100 101 104
101 100 99 97 94 94 96 98 97 95 93 91 89 87 85 83 81 80 79 80 81 81 80 78 77 78 78 79 78 78 78 78 76 74 75 77 78 80 83 84 84 83 83 83 83 84 84 83 82 81 82 82 82 81 81 81 83 84 85 85 86 88 90 92 94 97 98 95 96 99 95 89 91 94 94 95 96 95 96 97 99 101 101 101 102 104 107 110
102 103 103 101 98 97 98 99 99 96 94 92 91 88 86 84 83 82 83 84 84 83 83 81 80 80 81 82 81 79 79 80 80 79 79 79 80 81 82 84 85 86 86 87 87 87 87 87 86 86 86 85 84 85 85 86 88 88 87 88 89 90 91 93 95 98 98 97 99 99 98 99 100 99 98 99 99 100 102 103 104 103 102 103 106 110 112 113
101 103 105 104 102 100 100 99 100 99 96 94 93 91 89 87 85 84 86 86 85 84 84 84 83 84 84 84 83 83 83 83 83 84 83 83 84 84 85 86 87 88 89 90 90 91 91 90 89 89 89 89 89 90 91 92 93 93 93 93 93 94 95 96 98 99 100 102 103 100 102 106 104 101 104 107 106 107 108 108 106 105 106 109 112 114 115 116
100 100 102 103 103 102 101 100 100 100 97 96 97 96 93 90 88 87 88 89 88 87 86 86 86 85 85 85 86 87 88 89 89 88 86 86 86 87 88 89 90 91 92 92 93 93 94 93 92 92 92 92 93 94 95 95 95 95 96 95 95 98 99 99 99 99 102 107 107 105 107 109 106 106 111 113 113 113 112 110 109 110 113 115 116 117 118 121
102 101 101 103 104 103 102 101 101 100 99 99 99 99 97 95 94 92 90 90 91 90 90 89 87 85 85 86 88 89 90 92 92 92 91 91 91 91 92 92 93 93 94 95 95 95 96 95 94 95 95 94 96 97 97 97 97 97 96 96 97 99 99 99 100 103 107 111 111 109 112 112 109 111 116 117 117 116 114 114 115 116 118 119 120 122 124 127
105 105 105 105 106 105 104 104 103 102 102 101 101 100 99 98 97 96 95 95 94 93 93 91 89 88 89 89 91 92 92 92 92 92 94 96 97 97 97 96 95 94 94 96 96 97 98 96 95 96 97 97 97 98 99 100 100 99 98 97 97 97 98 101 105 108 111 114 113 114 116 114 112 115 119 120 120 119 119 119 120 120 122 123 125 128 130 132
107 107 108 108 108 108 107 107 106 105 105 104 103 102 100 100 99 99 99 100 100 98 97 95 94 94 94 94 95 94 93 93 93 94 96 98 101 102 102 100 99 97 98 98 99 100 100 98 97 98 100 99 98 100 102 102 102 102 99 96 97 100 103 106 109 111 113 115 117 119 120 116 115 118 122 122 122 123 123 123 123 124 126 128 130 132 134 137
108 108 109 110 110 110 110 109 109 109 108 107 106 104 103 101 101 101 102 104 105 105 103 101 100 99 99 98 96 94 93 95 96 97 98 101 102 103 103 102 102 102 102 103 103 103 102 102 101 102 104 103 101 103 105 106 108 105 97 95 101 106 108 109 111 113 116 119 121 123 121 119 119 122 124 124 126 127 127 127 128 129 130 133 135 136 138 140
109 109 109 110 111 112 111 111 111 111 110 109 107 106 105 104 104 104 105 106 107 108 107 107 106 105 103 100 97 95 96 98 99 99 100 102 103 104 103 103 103 104 104 104 105 105 105 105 105 106 109 107 105 106 109 112 113 106 97 99 107 110 110 111 113 116 119 122 124 124 123 122 124 125 126 127 129 130 130 130 132 133 136 138 139 140 142 143
Wind_Direction
243 243 243 244 244 244 245 245 246 247 248 249 251 253 255 257 259 260 262 263 265 266 266 267 269 270 272 273 274 275 276 276 277 278 278 278 279 279 279 279 279 279 278 278 278 280 281 282 283 285 287 289 290 290 290 289 289 291 291 291 290 289 288 288 287 286 285 284 284 284 286 287 289 289 291 296 296 299 306 307 306 302 299 296 291 287 286 288
243 244 244 244 244 244 244 245 246 247 248 249 251 252 254 256 258 259 261 262 263 264 265 266 267 269 270 271 273 274 275 275 276 276 276 277 279 279 280 280 281 281 280 280 280 280 281 282 283 285 286 287 289 288 289 290 291 293 293 293 292 291 290 290 289 289 287 286 286 285 287 288 287 288 291 295 296 298 299 296 295 297 300 300 298 294 291 290
245 245 245 245 245 244 244 245 245 246 248 249 251 252 254 255 257 258 260 261 262 263 264 264 266 267 269 270 271 272 273 273 274 274 275 276 278 279 280 282 282 281 281 281 281 281 282 283 284 285 286 288 288 288 288 290 292 293 294 293 293 293 292 291 290 289 287 287 287 286 287 287 287 289 292 294 295 297 296 285 278 285 293 296 298 299 299 297
246 246 246 246 246 245 245 245 245 246 247 249 250 252 253 255 256 257 258 260 261 262 263 264 265 266 267 268 269 271 271 272 272 272 273 275 277 278 280 281 282 283 283 282 282 283 283 284 284 286 287 288 287 287 288 290 292 292 292 292 293 294 293 292 291 289 288 289 288 287 287 287 287 290 292 295 297 297 294 286 277 275 279 286 292 297 301 302
248 248 248 247 247 246 246 245 245 246 247 248 249 251 252 254 255 256 257 258 260 261 262 263 264 264 265 266 268 268 269 270 271 271 273 274 275 277 278 279 280 281 282 282 283 283 283 283 284 286 287 287 287 286 287 289 291 292 292 293 294 294 293 292 292 290 290 291 289 287 288 287 287 290 293 296 299 298 295 291 287 280 274 275 280 287 294 299
248 249 248 248 248 248 247 246 246 246 246 247 248 250 251 253 254 255 256 258 259 260 261 262 263 264 264 265 266 266 267 269 269 271 273 274 275 276 277 277 277 278 279 280 281 281 282 282 283 284 285 285 286 286 287 289 291 292 293 293 294 294 293 292 292 291 291 291 290 289 290 289 288 291 294 298 299 297 295 294 292 288 283 280 280 282 286 292
249 249 249 249 249 249 248 248 247 246 246 246 247 249 250 252 253 254 255 257 258 259 260 261 262 263 263 264 264 265 265 267 268 270 272 273 274 274 274 275 275 276 276 277 278 279 280 281 281 281 282 282 283 285 286 288 290 292 292 293 294 294 294 293 292 292 292 292 292 292 293 290 290 292 294 296 296 296 296 295 294 292 291 290 288 288 288 290
249 250 250 251 250 250 250 250 249 248 247 247 248 249 250 252 253 253 255 256 258 259 260 260 261 262 263 263 264 264 265 266 268 269 270 271 272 272 272 272 273 273 274 275 276 277 278 279 279 279 279 279 280 282 283 285 287 289 290 291 293 293 294 292 291 291 291 292 293 294 294 292 291 293 295 295 294 295 295 295 295 294 293 293 293 293 292 292
249 250 251 252 252 252 251 252 252 251 250 249 249 250 251 251 252 253 254 256 257 258 259 260 261 262 263 264 264 264 265 266 267 268 268 269 269 270 271 271 271 272 272 273 274 276 276 276 277 277 278 278 278 279 280 281 283 285 286 287 288 290 290 290 288 288 288 288 290 291 291 290 290 294 295 294 295 295 293 293 293 293 293 294 294 294 294 294
248 249 250 252 253 253 253 253 253 253 252 251 251 250 251 251 251 252 253 255 256 258 259 260 260 261 262 264 264 264 265 266 266 267 267 267 267 267 268 269 270 270 271 272 273 273 275 276 277 277 278 278 279 278 278 278 279 281 283 284 286 286 286 286 285 285 285 286 287 287 287 286 288 292 292 292 294 294 292 291 291 292 294 295 295 295 294 294
248 248 249 251 252 254 254 254 254 254 254 253 252 251 251 251 251 252 253 254 256 257 259 260 261 262 263 264 264 264 264 264 264 265 266 266 266 266 266 267 268 269 270 271 272 273 275 276 277 277 278 278 279 278 278 278 279 280 282 283 285 286 285 285 284 284 285 286 287 287 286 285 287 290 290 290 292 291 289 287 288 290 292 293 293 293 293 293
246 247 248 250 251 252 254 255 255 255 255 255 254 252 251 251 250 251 252 254 255 257 258 260 261 262 263 264 264 265 264 263 264 264 264 265 265 265 266 267 268 269 270 271 273 274 275 275 276 277 276 277 278 278 279 279 280 281 283 284 286 286 285 284 284 285 287 288 287 287 286 285 287 289 289 289 290 288 286 285 287 288 289 289 290 290 290 291
245 245 245 248 250 251 252 254 255 256 256 256 256 255 253 251 250 251 251 253 254 255 257 259 260 261 262 263 264 264 263 262 263 263 263 264 264 265 266 267 268 270 271 272 273 274 274 275 276 276 276 277 277 278 279 280 281 282 283 284 285 285 283 283 285 286 288 288 288 287 286 286 288 290 290 290 290 288 286 287 288 288 288 288 288 288 289 290
243 243 243 244 247 249 250 251 253 255 255 256 256 256 255 253 251 251 251 251 253 254 256 257 259 260 261 262 263 263 262 262 262 263 264 264 265 266 268 269 270 272 273 274 274 274 275 276 277 277 278 277 278 278 280 281 283 283 283 283 283 283 282 284 285 285 286 287 288 288 287 287 288 291 291 292 291 289 289 289 289 289 289 289 289 289 289 289
242 242 242 242 244 246 247 249 251 253 254 255 256 256 256 254 252 251 251 251 252 253 254 256 258 259 259 260 262 262 262 262 263 263 264 265 267 269 269 271 271 272 273 273 274 275 276 277 278 278 278 278 277 279 282 284 283 282 282 282 282 282 283 284 283 283 285 286 286 286 285 286 288 290 291 291 290 290 290 290 290 290 290 289 289 288 288 288
242 242 242 242 243 244 246 247 249 251 253 254 254 255 255 255 253 252 251 251 251 252 253 254 255 256 257 259 261 261 262 263 264 264 266 267 269 269 270 271 271 271 272 272 274 275 276 278 278 278 278 278 277 280 284 284 281 280 281 281 281 282 282 282 282 283 285 285 284 284 283 284 287 289 290 289 288 288 289 289 290 290 290 289 289 289 289 288
242 242 242 242 242 243 244 246 247 249 251 252 253 254 254 254 254 253 252 251 251 251 252 252 253 254 256 258 259 261 262 264 264 265 267 268 268 268 269 269 270 270 271 272 273 275 277 278 278 278 278 277 278 283 285 282 279 281 282 281 281 280 280 280 282 285 286 284 283 282 282 283 285 288 289 288 287 287 287 287 287 287 287 287 287 288 288 288
242 242 242 242 242 242 243 244 245 247 248 250 251 252 253 253 253 253 252 252 251 251 251 251 252 253 254 256 258 261 262 263 264 266 267 267 267 267 268 268 269 269 269 271 273 275 277 278 278 278 276 276 280 284 282 279 280 282 282 281 280 279 279 279 281 285 285 283 281 280 281 281 283 285 286 286 286 286 286 285 285 285 284 284 284 284 284 284
242 242 241 242 242 242 242 243 244 245 247 248 249 251 251 252 252 252 252 252 251 250 250 251 251 252 253 255 258 260 262 263 265 266 266 266 266 266 267 268 267 268 269 270 273 275 276 277 278 275 275 278 282 282 279 279 280 282 282 281 280 279 279 278 280 284 283 282 281 279 279 279 281 284 283 283 283 283 282 282 282 282 282 282 283 283 283 283
242 242 242 241 242 242 243 243 244 245 245 247 248 249 250 251 251 252 251 251 251 250 250 250 251 252 253 255 257 260 262 264 265 265 265 265 265 266 266 266 267 268 269 271 273 275 275 276 275 273 276 281 281 278 278 279 280 281 282 281 281 280 278 278 281 282 280 280 279 279 279 278 279 281 281 281 280 280 281 281 281 281 282 282 283 282 282 283
242 242 242 241 241 242 243 244 245 245 245 246 248 249 250 250 250 251 251 251 250 250 250 249 250 252 253 254 257 259 261 263 263 263 264 264 265 265 265 266 267 268 269 272 273 273 274 275 272 273 278 279 277 277 278 279 279 280 279 280 280 279 278 279 280 279 279 278 277 278 279 278 278 279 279 279 280 280 280 281 281 281 282 282 283 283 283 283
243 241 241 241 241 241 243 244 245 246 246 246 247 248 249 250 250 250 250 251 251 250 250 250 250 251 252 254 256 258 259 261 262 262 263 263 264 264 264 266 266 267 270 272 271 271 274 273 271 273 276 275 275 277 277 277 278 278 278 278 278 277 277 278 278 277 277 277 277 277 278 278 279 279 279 280 280 279 280 280 281 281 282 283 284 284 284 284
244 243 241 240 240 240 242 244 245 246 246 246 247 249 249 249 249 249 250 250 251 251 250 250 250 250 252 254 255 257 259 259 259 260 261 262 262 263 264 264 265 268 269 269 269 272 273 271 270 272 273 275 277 277 277 277 277 278 279 278 277 277 277 278 277 277 277 277 277 276 277 279 279 279 279 279 278 278 279 280 280 281 282 282 283 282 283 283
245 244 242 241 240 239 240 242 244 246 246 247 248 249 250 250 250 250 250 249 250 252 251 250 250 250 252 253 255 256 256 257 258 258 259 260 261 262 263 264 266 268 267 268 270 272 272 270 270 272 275 276 277 277 277 277 278 279 279 278 277 278 279 278 278 278 278 279 278 277 278 278 278 277 277 276 277 278 279 280 280 280 281 281 281 280 281 281
244 245 243 242 240 239 240 241 244 245 246 247 248 249 250 251 251 251 250 248 248 252 253 251 250 250 252 254 255 255 255 256 257 257 257 258 259 260 262 264 266 267 266 268 270 272 271 270 271 274 276 277 276 276 276 277 279 279 277 277 277 279 279 278 278 279 279 280 279 279 278 276 276 276 276 277 278 280 280 280 280 280 280 280 280 280 279 279
242 243 243 242 241 240 240 241 243 244 245 247 248 249 250 251 252 252 252 249 246 250 255 254 252 251 253 254 254 254 255 255 255 255 256 257 258 260 262 265 266 265 266 268 271 272 270 270 273 275 275 275 275 275 276 277 278 276 276 276 277 278 277 278 278 279 279 280 279 279 277 275 275 276 277 279 280 280 280 280 280 280 280 280 280 280 279 279
241 242 243 243 242 242 241 242 243 244 245 247 248 249 250 250 251 252 252 250 245 248 254 256 255 252 252 254 254 255 254 253 253 254 255 256 258 261 263 264 264 265 266 269 271 270 268 271 273 273 273 274 274 274 276 277 277 276 277 278 279 278 278 278 278 278 278 278 278 278 276 275 276 277 278 279 280 279 279 280 280 281 281 281 281 280 280 279
240 241 241 242 242 243 243 244 245 246 246 247 248 249 249 250 250 251 252 249 245 247 253 256 257 255 253 253 254 255 254 253 253 254 255 257 259 261 262 263 264 265 268 269 270 268 269 270 271 271 272 273 273 275 276 276 276 277 277 278 279 279 280 280 280 280 279 278 278 278 276 277 278 278 279 279 279 279 279 280 280 280 280 280 280 280 279 279
239 240 240 240 240 241 243 245 246 247 246 247 248 249 249 250 250 251 252 251 248 248 252 255 257 257 255 254 254 255 254 253 253 254 256 258 260 261 262 263 264 266 267 268 268 267 267 268 269 270 271 271 273 275 275 275 275 276 277 278 279 279 280 281 282 282 281 281 280 277 277 279 279 279 280 278 278 278 277 277 277 278 279 279 279 279 280 280
240 241 241 240 240 240 241 243 245 246 246 246 247 248 248 249 250 251 252 254 253 248 248 252 255 257 257 256 255 254 253 253 253 254 255 258 259 261 262 263 264 265 266 267 266 265 265 266 269 270 272 273 275 276 276 277 277 278 280 281 281 282 282 283 284 283 283 282 280 277 278 279 279 279 278 277 276 276 275 276 277 277 278 279 280 281 281 281
243 243 243 243 242 241 241 243 245 246 246 246 247 247 248 249 249 250 252 255 254 248 246 249 253 255 256 255 255 254 254 253 253 254 255 256 259 261 262 263 263 264 264 264 263 263 264 267 269 271 273 274 275 277 278 279 280 281 283 283 283 283 284 284 285 284 284 285 283 282 282 281 280 280 280 279 279 278 278 278 278 279 279 281 282 283 283 282
242 243 243 243 243 243 244 245 246 247 247 248 249 249 249 249 249 250 252 253 252 249 247 247 249 251 253 253 254 254 254 254 254 254 255 257 259 260 260 261 262 262 261 261 261 263 265 267 269 270 271 273 275 278 279 280 281 283 283 283 283 284 284 285 284 284 286 288 288 287 287 286 285 284 283 283 283 283 283 282 282 281 281 282 283 283 282 281
241 242 243 243 243 243 244 245 246 247 248 250 251 251 250 250 251 253 252 250 250 249 247 247 247 248 250 252 253 254 254 255 255 255 256 257 258 258 259 259 259 259 260 260 261 262 264 266 267 268 270 273 275 277 278 280 281 282 283 283 284 284 284 283 283 285 287 288 288 289 289 289 288 287 287 287 287 287 286 285 284 283 282 282 282 281 280 280
243 243 244 243 243 242 243 245 247 248 249 249 250 251 251 251 253 252 251 250 249 247 245 246 247 248 248 250 252 255 256 255 255 255 255 256 256 257 257 257 258 258 259 259 260 261 262 264 266 268 270 272 274 276 277 278 279 281 281 282 283 283 282 283 284 287 288 288 288 290 290 290 289 288 289 289 289 289 287 286 285 284 283 282 282 282 282 282
244 243 243 243 243 243 244 246 247 249 249 249 250 251 252 254 254 251 249 249 248 246 246 246 248 250 250 251 252 254 255 254 253 253 253 254 255 256 257 258 258 257 258 258 258 260 262 264 266 268 269 271 273 274 276 277 279 280 280 282 282 282 282 285 287 288 288 287 289 289 289 289 289 290 290 290 289 289 288 288 288 287 286 285 285 285 285 286
245 244 244 243 243 244 244 245 246 248 249 249 250 251 252 254 254 251 249 248 248 248 248 248 249 251 251 251 251 252 252 251 251 251 253 254 254 255 257 257 257 257 257 258 259 260 262 264 266 268 269 270 272 274 275 277 278 279 280 281 281 282 284 286 287 287 287 287 288 288 289 290 290 292 292 291 290 290 290 290 289 289 288 288 288 288 288 289
245 245 244 243 242 243 243 245 245 246 248 248 249 250 251 252 253 253 251 250 249 249 249 249 250 250 250 249 249 250 250 249 249 251 252 253 253 254 256 257 257 257 258 259 260 261 262 264 265 267 268 270 272 273 275 277 278 278 279 280 282 284 286 286 287 287 287 287 287 287 288 289 291 292 292 291 291 291 291 291 290 290 290 290 290 291 291 291
247 246 245 244 243 243 243 243 244 245 247 248 249 249 250 251 253 255 254 251 250 249 250 250 251 251 250 249 248 248 248 248 248 250 250 251 252 253 255 256 257 257 258 259 261 262 262 263 265 266 268 269 270 273 275 276 277 278 280 282 284 285 285 286 287 287 287 286 287 287 288 289 290 291 290 291 291 291 291 291 291 291 291 292 292 292 293 294
247 247 245 243 243 244 244 244 245 245 246 248 249 250 250 251 253 255 255 253 250 249 249 251 252 252 251 250 248 247 247 247 247 248 249 250 251 252 254 256 257 257 258 260 261 262 263 264 265 266 268 269 272 274 276 276 277 279 282 283 284 285 285 285 286 286 287 287 287 287 287 288 289 289 289 290 290 290 290 291 291 292 292 293 293 294 296 298
247 248 247 246 245 245 246 246 245 245 246 247 250 251 251 252 252 253 255 255 253 250 248 249 251 252 253 252 250 249 248 248 247 248 249 251 252 253 254 256 257 258 259 260 261 262 263 264 265 266 268 271 273 275 276 277 279 281 283 283 284 285 285 284 285 287 287 288 288 288 287 288 289 288 289 289 289 290 290 291 292 293 294 294 295 297 300 302
247 248 249 249 249 248 247 248 248 248 248 249 251 252 253 253 253 253 254 255 255 253 250 249 250 252 253 254 253 252 251 249 249 249 250 251 253 254 255 256 258 259 260 260 261 262 263 264 265 267 270 272 273 274 276 278 280 281 282 283 283 283 283 285 286 287 288 288 289 289 289 290 290 290 290 290 290 290 292 293 294 294 295 296 298 301 303 304
247 248 249 250 250 249 249 249 249 250 250 250 251 252 252 252 253 254 254 254 255 254 253 252 253 253 254 254 254 254 254 253 251 250 251 251 253 254 256 258 259 259 260 260 261 262 263 264 266 268 270 270 272 274 275 277 279 280 281 281 282 283 285 287 287 288 289 289 291 292 292 292 293 293 293 293 292 293 294 294 295 295 297 299 301 303 304 304
248 248 248 249 250 251 251 250 249 250 251 251 251 252 252 253 254 255 255 255 254 254 254 254 255 255 255 254 254 254 254 254 253 253 253 253 253 254 256 258 259 260 260 261 261 262 264 265 266 268 269 270 272 274 275 277 279 280 280 281 283 285 286 287 288 289 289 291 293 294 293 295 296 295 294 293 294 296 296 297 298 299 300 301 303 304 304 304
247 247 247 248 249 251 252 253 252 251 252 253 253 253 253 254 254 255 256 257 256 254 254 254 254 255 256 256 256 255 255 255 255 255 255 255 255 255 256 257 258 260 261 261 262 263 264 265 267 268 270 272 274 275 276 278 279 280 281 283 284 285 286 286 288 289 290 293 294 294 295 297 297 295 295 295 296 298 299 299 300 301 302 303 304 304 304 304
246 247 247 247 248 250 251 254 255 255 254 254 254 254 255 255 256 256 257 258 257 256 255 255 255 255 256 256 257 257 257 256 255 255 255 256 257 257 257 258 258 259 261 262 263 264 266 268 269 271 273 274 275 276 278 279 280 281 283 284 284 285 287 288 289 290 293 295 294 295 298 298 297 298 298 298 299 300 301 301 301 302 303 304 304 304 303 303
246 247 248 248 249 250 252 253 255 256 256 256 256 256 256 256 256 257 258 258 258 257 257 256 256 256 257 258 259 259 259 259 257 255 255 256 257 259 260 261 261 262 262 264 265 266 268 270 272 274 275 276 276 277 278 279 280 281 282 284 286 287 288 290 291 293 295 295 295 297 299 298 299 301 301 300 302 302 301 301 302 303 304 304 303 302 303 304
245 247 248 250 250 251 252 253 254 255 256 257 257 258 257 257 256 256 256 258 258 259 259 257 257 257 258 260 260 261 261 261 261 260 258 257 257 258 259 259 260 261 262 264 266 267 269 271 273 275 276 277 277 278 278 279 279 280 282 284 287 288 289 291 294 296 297 296 297 299 299 299 301 302 301 301 302 301 301 302 303 304 304 302 302 304 305 306
245 246 248 250 251 252 253 253 254 255 255 256 257 257 258 258 258 258 257 257 257 258 259 258 258 259 259 260 260 260 261 262 262 263 263 262 261 261 260 259 258 259 260 262 265 268 269 271 273 275 276 277 278 279 280 281 281 282 284 285 287 288 291 295 297 298 297 297 299 300 299 299 301 302 301 300 300 300 302 303 303 303 302 303 304 306 306 306
245 247 248 249 251 252 252 253 253 253 254 255 256 256 257 258 258 259 260 260 259 259 258 259 259 260 260 260 260 260 261 262 263 263 264 264 264 264 264 263 263 263 263 264 267 269 270 272 273 275 277 277 279 280 282 282 283 284 285 287 290 294 297 298 298 298 297 298 299 299 298 299 301 301 299 299 300 302 303 302 302 302 303 304 305 305 305 305
244 246 248 249 250 251 251 252 252 252 253 254 255 256 257 257 258 259 261 262 262 261 260 259 259 260 260 260 260 261 262 263 264 264 264 264 264 264 265 266 267 268 269 270 271 272 273 275 276 278 279 279 281 282 283 284 286 286 289 294 298 299 298 297 297 297 298 298 298 297 297 299 300 299 298 299 301 301 301 300 301 302 304 304 304 304 304 304
244 245 246 248 249 249 250 251 251 252 252 253 254 255 256 257 258 259 260 261 262 262 262 261 260 260 261 261 262 263 264 264 265 265 265 265 266 266 266 267 268 270 271 273 274 275 277 279 280 281 282 283 284 285 287 289 289 289 295 300 299 296 295 296 297 297 297 296 295 295 297 299 298 298 299 300 300 299 300 301 302 303 303 303 303 303 304 304
245 245 245 246 247 248 249 250 251 252 252 253 254 255 256 256 257 258 259 260 261 262 263 263 263 263 263 263 264 265 265 265 266 266 267 267 268 268 269 269 270 271 272 273 275 277 279 281 282 283 285 286 287 289 290 289 289 294 299 299 294 293 295 297 297 296 294 293 293 295 297 297 297 298 298 298 298 299 300 301 302 303 302 302 303 303 304 305
Height
10778 10780 10781 10782 10783 10785 10786 10787 10788 10789 10789 10790 10790 10790 10791 10792 10792 10793 10794 10794 10795 10795 10795 10796 10796 10796 10797 10797 10797 10797 10797 10797 10797 10797 10797 10797 10797 10797 10797 10797 10797 10797 10797 10796 10797 10796 10796 10796 10795 10795 10795 10794 10794 10793 10794 10794 10794 10795 10795 10795 10794 10793 10793 10793 10792 10793 10793 10792 10792 10792 10792 10793 10793 10793 10795 10797 10798 10800 10801 10799 10796 10793 10792 10793 10793 10794 10794 10794
10775 10776 10777 10779 10780 10781 10782 10783 10784 10785 10786 10786 10787 10787 10788 10789 10790 10790 10791 10791 10792 10792 10793 10793 10793 10794 10794 10794 10794 10794 10794 10795 10795 10795 10795 10795 10795 10795 10795 10795 10794 10794 10794 10794 10794 10794 10794 10793 10793 10793 10793 10792 10792 10791 10791 10792 10793 10793 10793 10793 10793 10792 10791 10791 10791 10791 10791 10791 10791 10791 10791 10791 10791 10791 10793 10795 10796 10798 10800 10800 10796 10792 10790 10789 10789 10790 10792 10792
10771 10772 10773 10775 10776 10778 10779 10779 10780 10781 10782 10783 10784 10785 10786 10786 10787 10787 10788 10788 10789 10789 10790 10790 10791 10791 10791 10791 10791 10792 10792 10792 10792 10792 10792 10793 10793 10793 10792 10792 10792 10791 10791 10791 10791 10792 10792 10791 10791 10791 10791 10791 10790 10789 10789 10790 10791 10791 10791 10791 10791 10790 10789 10789 10789 10789 10789 10789 10789 10789 10790 10790 10789 10790 10791 10793 10794 10796 10798 10798 10797 10793 10790 10788 10786 10786 10787 10789
10767 10768 10770 10771 10772 10774 10775 10776 10777 10778 10779 10780 10781 10782 10782 10783 10783 10784 10785 10785 10785 10786 10786 10787 10787 10788 10788 10788 10788 10789 10789 10789 10789 10789 10790 10790 10790 10790 10790 10790 10789 10789 10788 10788 10789 10789 10789 10789 10789 10789 10789 10789 10788 10787 10787 10788 10789 10789 10789 10789 10789 10789 10788 10787 10787 10786 10786 10788 10788 10788 10789 10788 10787 10788 10789 10790 10792 10793 10794 10795 10795 10794 10792 10789 10786 10784 10783 10784
10763 10764 10766 10767 10768 10769 10771 10772 10773 10774 10775 10776 10777 10778 10779 10779 10780 10781 10782 10782 10782 10782 10783 10783 10784 10785 10785 10785 10786 10786 10786 10786 10786 10786 10787 10788 10788 10788 10788 10787 10787 10786 10786 10785 10786 10786 10787 10787 10787 10787 10787 10786 10786 10785 10785 10786 10787 10787 10787 10787 10787 10788 10786 10785 10785 10784 10784 10785 10786 10786 10787 10787 10786 10787 10788 10788 10789 10789 10789 10790 10791 10791 10791 10789 10787 10786 10784 10782
10759 10760 10761 10763 10764 10765 10766 10767 10769 10770 10771 10772 10773 10774 10775 10776 10777 10778 10778 10778 10778 10779 10779 10780 10781 10782 10782 10782 10783 10783 10783 10783 10783 10783 10784 10785 10785 10785 10785 10784 10784 10783 10783 10783 10783 10783 10784 10784 10784 10784 10784 10784 10784 10783 10782 10783 10784 10785 10785 10784 10784 10785 10785 10783 10782 10782 10782 10783 10783 10783 10785 10784 10784 10786 10786 10787 10786 10785 10785 10785 10786 10787 10787 10787 10786 10786 10785 10784
10754 10756 10757 10759 10760 10762 10762 10763 10765 10766 10767 10768 10769 10770 10771 10772 10773 10774 10775 10775 10775 10775 10776 10777 10778 10778 10779 10779 10779 10779 10781 10781 10779 10780 10781 10781 10781 10781 10782 10781 10781 10781 10780 10780 10780 10780 10781 10781 10781 10782 10782 10781 10781 10781 10780 10780 10781 10782 10782 10782 10782 10782 10783 10782 10781 10780 10779 10780 10780 10780 10782 10781 10782 10784 10785 10785 10784 10782 10781 10781 10782 10782 10782 10783 10783 10783 10783 10783
10750 10751 10753 10754 10756 10757 10758 10759 10760 10762 10763 10764 10765 10766 10767 10769 10770 10770 10771 10771 10771 10771 10772 10773 10774 10775 10775 10776 10776 10776 10778 10778 10776 10777 10778 10778 10778 10778 10778 10778 10778 10778 10778 10778 10778 10778 10778 10778 10778 10779 10779 10779 10779 10779 10778 10778 10778 10778 10779 10779 10780 10779 10780 10780 10779 10779 10777 10777 10777 10777 10778 10777 10778 10781 10782 10783 10782 10780 10779 10778 10778 10778 10778 10779 10780 10780 10780 10780
10745 10747 10749 10750 10752 10753 10754 10755 10756 10758 10759 10760 10761 10762 10764 10765 10766 10767 10767 10767 10767 10767 10769 10770 10771 10772 10772 10772 10773 10773 10775 10775 10773 10774 10774 10775 10775 10775 10775 10775 10775 10775 10775 10775 10775 10775 10775 10775 10775 10776 10776 10775 10776 10776 10776 10775 10775 10775 10775 10776 10777 10777 10777 10777 10777 10777 10776 10776 10776 10774 10774 10774 10775 10778 10779 10779 10779 10779 10777 10775 10775 10775 10775 10776 10776 10776 10776 10776
10740 10742 10744 10746 10747 10749 10750 10751 10752 10754 10755 10756 10757 10758 10760 10761 10762 10763 10763 10764 10764 10764 10765 10766 10768 10769 10768 10769 10768 10769 10772 10771 10770 10771 10771 10771 10772 10772 10771 10771 10771 10771 10772 10772 10772 10772 10772 10772 10772 10772 10772 10772 10773 10773 10773 10773 10772 10772 10772 10773 10774 10774 10774 10774 10773 10774 10774 10774 10774 10773 10772 10771 10772 10775 10776 10775 10777 10777 10775 10773 10772 10772 10772 10772 10772 10772 10772 10772
10735 10737 10739 10741 10743 10744 10746 10747 10748 10750 10751 10752 10753 10754 10755 10756 10758 10759 10759 10760 10761 10761 10762 10763 10764 10765 10765 10765 10764 10765 10768 10767 10767 10768 10767 10768 10768 10768 10768 10768 10768 10768 10768 10769 10769 10769 10769 10769 10769 10769 10769 10769 10769 10770 10770 10770 10770 10770 10770 10769 10770 10771 10770 10771 10770 10770 10771 10771 10771 10770 10768 10767 10769 10773 10773 10773 10773 10774 10772 10769 10769 10770 10770 10769 10769 10768 10768 10768
10730 10733 10734 10736 10738 10740 10741 10743 10744 10745 10746 10747 10748 10749 10751 10752 10753 10754 10755 10756 10757 10758 10758 10759 10760 10761 10762 10761 10759 10762 10764 10763 10763 10764 10764 10764 10764 10764 10765 10764 10765 10765 10765 10765 10766 10766 10766 10766 10766 10766 10765 10765 10765 10766 10766 10767 10767 10767 10767 10766 10767 10767 10766 10766 10766 10766 10767 10768 10767 10766 10763 10762 10766 10769 10769 10769 10770 10769 10767 10766 10766 10766 10766 10766 10765 10765 10764 10764
10725 10727 10729 10731 10733 10734 10736 10738 10739 10741 10742 10743 10744 10745 10746 10747 10748 10750 10751 10752 10753 10754 10755 10756 10756 10758 10758 10756 10755 10758 10759 10759 10760 10760 10760 10761 10760 10761 10761 10761 10761 10761 10761 10762 10762 10762 10763 10762 10762 10762 10762 10761 10761 10762 10763 10763 10764 10764 10764 10763 10763 10763 10761 10762 10763 10762 10763 10764 10763 10763 10759 10756 10761 10765 10765 10765 10765 10764 10763 10762 10762 10762 10762 10762 10761 10761 10761 10761
10719 10721 10723 10725 10727 10729 10731 10733 10734 10736 10737 10738 10739 10740 10742 10743 10744 10745 10746 10747 10749 10750 10751 10752 10752 10754 10754 10752 10751 10754 10754 10755 10756 10756 10757 10757 10757 10757 10757 10758 10757 10757 10758 10758 10758 10758 10759 10759 10759 10758 10758 10758 10757 10758 10759 10760 10760 10761 10761 10760 10759 10758 10757 10758 10760 10759 10760 10761 10760 10759 10756 10751 10755 10761 10761 10761 10760 10758 10758 10758 10758 10758 10758 10757 10757 10757 10757 10757
10714 10716 10717 10719 10721 10723 10725 10727 10729 10730 10732 10733 10734 10735 10737 10738 10739 10740 10741 10742 10744 10746 10747 10748 10749 10750 10750 10747 10747 10749 10750 10751 10752 10752 10753 10753 10753 10754 10754 10754 10754 10754 10754 10754 10754 10755 10755 10755 10755 10755 10754 10754 10754 10755 10756 10757 10757 10757 10758 10757 10756 10755 10753 10753 10756 10757 10758 10758 10757 10756 10753 10748 10749 10756 10757 10756 10755 10754 10754 10753 10753 10753 10753 10753 10753 10753 10753 10753
10708 10710 10712 10714 10716 10718 10720 10721 10723 10725 10726 10728 10729 10730 10731 10732 10733 10734 10736 10737 10739 10741 10742 10744 10744 10745 10746 10743 10743 10744 10745 10747 10747 10747 10748 10749 10750 10750 10750 10750 10750 10751 10750 10750 10751 10751 10751 10752 10751 10751 10750 10749 10750 10752 10755 10754 10752 10753 10755 10754 10752 10752 10749 10748 10750 10753 10755 10755 10755 10753 10751 10746 10745 10750 10753 10752 10751 10750 10750 10749 10749 10748 10748 10748 10748 10748 10748 10748
10702 10704 10706 10708 10710 10712 10714 10716 10718 10719 10721 10722 10723 10724 10725 10727 10728 10729 10731 10732 10734 10736 10738 10739 10739 10741 10742 10739 10739 10739 10741 10743 10742 10743 10744 10745 10745 10745 10746 10747 10747 10747 10747 10747 10747 10747 10748 10748 10748 10747 10746 10745 10746 10750 10752 10750 10748 10750 10751 10751 10750 10748 10746 10744 10745 10750 10752 10752 10751 10749 10747 10744 10742 10746 10748 10746 10745 10746 10746 10745 10745 10744 10744 10743 10743 10743 10742 10742
10696 10698 10701 10703 10704 10706 10708 10710 10711 10713 10715 10716 10717 10719 10720 10721 10722 10724 10726 10727 10729 10731 10733 10734 10735 10737 10737 10734 10735 10735 10736 10738 10738 10740 10740 10740 10741 10741 10742 10743 10743 10743 10743 10743 10743 10744 10745 10744 10744 10743 10740 10740 10744 10747 10747 10745 10744 10746 10747 10747 10747 10745 10743 10741 10741 10746 10748 10747 10747 10746 10744 10741 10739 10742 10744 10741 10740 10741 10740 10740 10740 10739 10739 10738 10738 10738 10737 10737
10690 10692 10695 10697 10698 10700 10702 10704 10706 10707 10708 10710 10712 10713 10714 10716 10717 10719 10720 10722 10724 10725 10727 10729 10730 10732 10732 10730 10731 10731 10732 10734 10735 10735 10736 10736 10736 10736 10737 10738 10738 10738 10739 10739 10739 10740 10741 10741 10740 10737 10734 10738 10742 10742 10741 10741 10740 10741 10742 10743 10742 10741 10739 10737 10738 10742 10743 10743 10741 10741 10741 10738 10736 10737 10738 10737 10736 10735 10735 10735 10734 10733 10733 10733 10733 10733 10732 10732
10684 10686 10688 10690 10692 10695 10697 10699 10700 10701 10702 10705 10706 10707 10709 10710 10711 10713 10715 10716 10718 10719 10722 10724 10725 10726 10727 10726 10726 10727 10728 10730 10731 10730 10731 10731 10731 10733 10733 10733 10733 10734 10734 10735 10736 10736 10736 10738 10735 10730 10731 10736 10738 10736 10736 10737 10736 10737 10737 10737 10738 10737 10734 10733 10736 10738 10739 10739 10737 10735 10737 10735 10733 10733 10732 10732 10731 10730 10730 10729 10729 10728 10727 10727 10727 10728 10727 10727
10677 10679 10682 10684 10686 10689 10691 10693 10694 10695 10697 10699 10700 10702 10703 10703 10705 10708 10709 10711 10712 10714 10717 10719 10720 10721 10721 10721 10722 10724 10724 10725 10726 10725 10726 10726 10727 10728 10728 10728 10729 10729 10730 10731 10732 10731 10733 10735 10729 10725 10730 10733 10732 10732 10733 10733 10733 10733 10733 10733 10733 10732 10730 10730 10732 10734 10734 10735 10733 10731 10732 10730 10729 10729 10727 10727 10726 10725 10725 10724 10724 10723 10722 10722 10722 10722 10722 10722
10670 10673 10675 10677 10680 10683 10685 10686 10688 10689 10691 10693 10695 10696 10696 10697 10699 10701 10703 10705 10707 10708 10711 10713 10716 10715 10714 10717 10718 10719 10721 10721 10720 10720 10721 10721 10722 10722 10723 10724 10724 10724 10726 10727 10727 10727 10730 10730 10724 10723 10727 10728 10727 10728 10728 10729 10728 10728 10729 10729 10729 10727 10727 10727 10727 10729 10730 10731 10730 10728 10727 10725 10724 10724 10721 10721 10721 10720 10720 10719 10718 10717 10717 10717 10717 10716 10716 10716
10664 10666 10668 10671 10674 10676 10678 10680 10682 10683 10685 10688 10689 10689 10690 10691 10693 10694 10696 10700 10701 10703 10706 10708 10710 10710 10709 10712 10714 10715 10717 10716 10715 10716 10715 10716 10716 10717 10719 10719 10719 10721 10722 10721 10721 10725 10727 10724 10719 10720 10722 10723 10724 10724 10723 10724 10724 10724 10725 10725 10724 10722 10724 10725 10723 10724 10725 10726 10726 10725 10724 10722 10719 10718 10716 10715 10714 10714 10714 10714 10713 10712 10712 10712 10711 10711 10710 10709
10658 10659 10662 10665 10667 10669 10671 10673 10675 10676 10678 10681 10682 10683 10683 10685 10686 10688 10689 10693 10697 10698 10699 10702 10705 10705 10705 10707 10709 10711 10712 10710 10710 10710 10709 10711 10711 10712 10714 10714 10715 10717 10716 10715 10717 10721 10722 10717 10714 10716 10718 10719 10719 10718 10718 10719 10720 10721 10720 10719 10719 10718 10720 10720 10719 10720 10721 10721 10721 10720 10721 10719 10714 10712 10711 10709 10708 10708 10709 10708 10707 10706 10706 10706 10705 10705 10704 10703
10651 10652 10656 10659 10661 10663 10664 10667 10669 10669 10672 10674 10675 10676 10677 10679 10679 10681 10682 10686 10694 10694 10692 10696 10699 10700 10701 10702 10705 10705 10705 10707 10706 10704 10703 10705 10706 10707 10709 10709 10711 10712 10710 10710 10714 10718 10716 10710 10710 10712 10713 10714 10714 10713 10712 10714 10716 10716 10714 10713 10714 10715 10715 10715 10715 10715 10716 10717 10716 10715 10717 10716 10710 10707 10706 10703 10703 10704 10703 10701 10701 10700 10700 10699 10699 10698 10698 10697
10644 10646 10649 10652 10654 10656 10658 10662 10661 10661 10666 10667 10668 10669 10670 10672 10672 10674 10675 10679 10690 10692 10686 10689 10694 10697 10697 10696 10698 10697 10701 10704 10699 10696 10698 10698 10700 10702 10704 10705 10706 10706 10704 10706 10710 10713 10708 10703 10706 10709 10708 10709 10708 10707 10707 10709 10711 10710 10708 10708 10710 10710 10709 10710 10710 10711 10712 10712 10711 10710 10710 10710 10708 10704 10701 10699 10699 10698 10697 10695 10695 10694 10694 10693 10693 10692 10691 10690
10637 10639 10642 10646 10648 10650 10654 10655 10653 10656 10660 10659 10661 10662 10663 10665 10664 10666 10666 10670 10686 10691 10684 10684 10687 10692 10692 10690 10691 10691 10696 10698 10691 10690 10692 10692 10695 10697 10699 10701 10700 10699 10700 10702 10706 10706 10701 10699 10702 10703 10702 10703 10702 10702 10703 10704 10705 10704 10702 10703 10704 10704 10704 10705 10705 10705 10707 10707 10707 10705 10702 10704 10705 10702 10698 10697 10695 10692 10691 10690 10689 10688 10687 10687 10686 10685 10684 10683
10631 10631 10635 10639 10641 10644 10648 10648 10649 10651 10652 10653 10654 10655 10656 10657 10656 10658 10657 10664 10684 10690 10683 10681 10680 10683 10686 10684 10684 10684 10688 10690 10686 10686 10687 10687 10691 10692 10694 10695 10694 10694 10695 10697 10699 10698 10695 10696 10696 10697 10697 10697 10696 10697 10699 10699 10699 10698 10696 10697 10698 10698 10699 10699 10699 10700 10700 10701 10702 10699 10695 10698 10701 10698 10695 10693 10690 10686 10685 10683 10682 10681 10680 10679 10678 10676 10675 10674
10623 10625 10628 10630 10633 10638 10641 10643 10643 10642 10644 10646 10646 10647 10649 10648 10649 10651 10649 10662 10683 10686 10681 10677 10674 10676 10677 10678 10679 10678 10680 10681 10680 10681 10681 10682 10686 10687 10687 10689 10689 10690 10690 10691 10692 10691 10691 10690 10690 10691 10692 10691 10691 10692 10693 10693 10693 10692 10691 10692 10692 10693 10693 10693 10693 10694 10694 10696 10696 10691 10688 10693 10696 10694 10691 10688 10685 10681 10679 10676 10675 10674 10672 10671 10669 10668 10668 10667
10616 10618 10620 10622 10627 10631 10633 10636 10634 10633 10636 10637 10637 10639 10640 10641 10643 10641 10646 10665 10678 10677 10675 10673 10670 10670 10669 10670 10671 10670 10671 10673 10674 10676 10677 10678 10680 10681 10682 10683 10684 10684 10684 10686 10685 10684 10684 10684 10685 10686 10685 10685 10686 10686 10686 10686 10687 10686 10686 10686 10686 10687 10687 10687 10688 10687 10688 10691 10690 10685 10684 10687 10690 10689 10685 10681 10679 10676 10673 10671 10669 10667 10665 10663 10662 10661 10660 10659
10610 10612 10613 10617 10623 10624 10627 10629 10626 10626 10629 10629 10630 10632 10632 10634 10632 10633 10650 10667 10667 10666 10669 10668 10665 10664 10662 10661 10660 10661 10664 10665 10668 10670 10671 10673 10674 10676 10677 10677 10677 10678 10679 10680 10677 10676 10678 10679 10679 10679 10679 10679 10678 10679 10679 10680 10680 10680 10680 10680 10679 10680 10680 10681 10681 10680 10681 10685 10684 10681 10681 10682 10683 10682 10677 10673 10671 10669 10667 10665 10663 10660 10658 10657 10655 10654 10652 10650
10603 10605 10606 10611 10616 10618 10622 10622 10617 10618 10622 10623 10624 10625 10625 10622 10622 10635 10654 10658 10653 10658 10663 10660 10658 10656 10652 10652 10652 10653 10656 10658 10660 10663 10665 10668 10669 10670 10670 10670 10671 10671 10672 10672 10669 10671 10673 10673 10673 10673 10672 10672 10671 10672 10672 10673 10674 10674 10674 10673 10673 10673 10674 10674 10674 10673 10675 10678 10677 10676 10676 10677 10677 10673 10668 10664 10662 10661 10659 10656 10655 10653 10651 10649 10647 10645 10643 10641
10596 10597 10599 10604 10609 10613 10615 10612 10608 10611 10616 10616 10616 10616 10614 10610 10622 10641 10648 10644 10645 10651 10653 10649 10649 10647 10645 10646 10647 10647 10649 10651 10654 10656 10659 10661 10663 10663 10663 10664 10664 10664 10665 10664 10662 10665 10666 10666 10666 10666 10665 10665 10665 10666 10665 10666 10667 10667 10667 10666 10666 10666 10665 10666 10666 10667 10670 10671 10670 10670 10669 10671 10670 10665 10660 10657 10653 10651 10649 10646 10645 10644 10641 10640 10637 10635 10633 10631
10589 10590 10592 10597 10601 10605 10607 10604 10603 10606 10608 10607 10607 10605 10600 10606 10627 10639 10635 10634 10638 10639 10641 10640 10639 10639 10641 10642 10642 10643 10644 10646 10648 10649 10651 10653 10655 10656 10656 10656 10657 10657 10657 10657 10656 10657 10658 10659 10659 10658 10659 10658 10659 10659 10658 10659 10660 10660 10660 10658 10659 10657 10654 10657 10660 10661 10663 10663 10664 10664 10662 10663 10662 10658 10655 10650 10645 10641 10638 10635 10634 10633 10631 10628 10626 10623 10621 10620
10580 10582 10584 10588 10594 10599 10601 10599 10599 10599 10598 10599 10597 10590 10593 10609 10625 10628 10625 10627 10627 10628 10632 10632 10632 10635 10637 10638 10639 10639 10639 10639 10641 10641 10643 10646 10648 10649 10649 10649 10650 10650 10649 10648 10649 10650 10652 10654 10652 10651 10652 10651 10652 10652 10651 10652 10653 10653 10652 10651 10651 10647 10644 10649 10653 10654 10654 10654 10658 10657 10654 10654 10653 10650 10648 10643 10637 10633 10630 10627 10624 10622 10620 10616 10614 10612 10610 10609
10570 10572 10575 10582 10590 10593 10592 10591 10592 10589 10587 10588 10583 10579 10593 10609 10613 10614 10618 10619 10618 10622 10624 10624 10627 10630 10631 10633 10633 10633 10632 10632 10633 10635 10637 10640 10641 10642 10642 10641 10641 10641 10641 10639 10640 10643 10646 10647 10645 10644 10644 10644 10644 10645 10644 10644 10645 10645 10645 10643 10640 10638 10638 10640 10643 10644 10643 10644 10650 10650 10648 10647 10645 10643 10640 10632 10628 10624 10621 10619 10615 10611 10608 10605 10602 10600 10599 10597
10561 10565 10569 10577 10583 10583 10582 10583 10582 10579 10577 10574 10570 10574 10591 10601 10601 10605 10612 10612 10613 10616 10616 10617 10621 10622 10623 10626 10626 10626 10625 10626 10628 10630 10632 10633 10634 10637 10635 10632 10632 10633 10632 10630 10632 10637 10638 10639 10639 10637 10637 10637 10636 10637 10637 10637 10637 10637 10637 10634 10632 10631 10632 10630 10630 10634 10633 10633 10640 10643 10642 10641 10638 10636 10631 10623 10619 10614 10610 10608 10604 10600 10597 10594 10591 10589 10587 10586
10554 10556 10560 10570 10573 10571 10572 10574 10571 10569 10567 10561 10559 10570 10585 10592 10595 10599 10604 10606 10607 10608 10608 10611 10613 10614 10616 10618 10619 10618 10617 10620 10624 10624 10625 10626 10628 10630 10627 10624 10625 10625 10623 10622 10625 10629 10630 10630 10632 10632 10630 10629 10629 10629 10631 10630 10627 10627 10628 10627 10625 10623 10623 10621 10619 10622 10622 10622 10628 10634 10635 10635 10632 10627 10622 10617 10611 10604 10599 10597 10593 10590 10586 10581 10579 10576 10574 10573
10543 10542 10550 10562 10563 10560 10563 10564 10562 10560 10555 10549 10551 10565 10579 10584 10589 10592 10594 10598 10600 10600 10603 10605 10604 10605 10608 10610 10611 10610 10610 10615 10617 10616 10618 10619 10621 10623 10620 10617 10618 10616 10615 10615 10617 10620 10621 10622 10625 10624 10622 10621 10622 10623 10622 10620 10619 10619 10620 10620 10617 10614 10612 10611 10610 10612 10612 10610 10614 10621 10627 10630 10625 10617 10612 10609 10603 10594 10588 10585 10582 10578 10575 10570 10566 10564 10561 10559
10529 10530 10543 10555 10554 10553 10556 10552 10549 10546 10542 10543 10550 10562 10572 10576 10581 10585 10586 10589 10592 10594 10597 10597 10595 10597 10600 10602 10603 10603 10604 10607 10608 10609 10611 10612 10613 10615 10613 10610 10609 10608 10606 10607 10610 10612 10612 10614 10616 10616 10614 10615 10616 10615 10612 10611 10611 10611 10611 10611 10609 10605 10601 10600 10602 10603 10601 10598 10599 10603 10614 10623 10617 10607 10603 10598 10592 10584 10578 10575 10570 10566 10562 10558 10554 10551 10549 10545
10520 10524 10539 10548 10545 10546 10545 10538 10535 10534 10536 10543 10550 10558 10565 10569 10573 10576 10578 10579 10581 10585 10588 10588 10587 10589 10592 10593 10594 10596 10596 10598 10601 10602 10603 10605 10605 10605 10605 10603 10601 10601 10599 10599 10602 10603 10603 10604 10607 10608 10609 10608 10608 10607 10606 10604 10603 10603 10603 10602 10600 10595 10592 10590 10593 10596 10590 10586 10588 10587 10596 10612 10607 10594 10589 10584 10579 10575 10569 10565 10559 10554 10550 10546 10542 10539 10536 10533
10511 10517 10531 10536 10533 10535 10533 10525 10525 10527 10529 10538 10546 10550 10555 10560 10564 10567 10569 10571 10572 10574 10578 10579 10581 10582 10584 10585 10586 10587 10586 10588 10591 10593 10595 10597 10596 10595 10596 10595 10594 10594 10592 10591 10593 10593 10592 10595 10598 10601 10602 10600 10600 10601 10601 10598 10596 10595 10594 10593 10590 10587 10586 10581 10580 10585 10579 10575 10579 10572 10575 10595 10596 10582 10573 10566 10563 10563 10559 10554 10547 10542 10538 10534 10530 10528 10525 10522
10502 10511 10520 10521 10522 10524 10518 10512 10516 10519 10522 10531 10538 10540 10545 10552 10556 10558 10561 10562 10562 10564 10567 10570 10573 10573 10574 10576 10577 10577 10578 10578 10581 10586 10587 10587 10587 10587 10587 10586 10586 10584 10582 10582 10583 10582 10582 10585 10589 10592 10593 10593 10593 10593 10593 10590 10588 10584 10583 10584 10582 10580 10579 10572 10569 10570 10565 10566 10569 10557 10557 10577 10580 10568 10560 10551 10547 10548 10544 10540 10535 10529 10525 10521 10518 10516 10513 10509
10493 10500 10505 10508 10511 10512 10505 10501 10507 10514 10518 10524 10527 10530 10536 10543 10547 10549 10551 10552 10552 10553 10556 10560 10563 10563 10564 10565 10567 10569 10569 10570 10573 10577 10578 10577 10578 10578 10577 10576 10575 10574 10572 10572 10572 10572 10572 10575 10579 10582 10584 10586 10586 10585 10583 10581 10576 10573 10574 10575 10573 10571 10568 10564 10560 10555 10551 10557 10556 10542 10543 10557 10556 10549 10544 10536 10532 10530 10526 10523 10521 10516 10513 10510 10506 10503 10499 10495
10483 10486 10491 10496 10498 10499 10497 10496 10500 10505 10510 10514 10517 10521 10527 10532 10537 10541 10541 10540 10541 10543 10546 10550 10553 10553 10553 10555 10558 10560 10561 10562 10564 10566 10567 10568 10568 10567 10566 10566 10565 10564 10562 10562 10562 10561 10561 10564 10569 10572 10574 10576 10577 10574 10572 10569 10565 10564 10567 10566 10563 10562 10559 10555 10550 10543 10540 10542 10538 10532 10532 10532 10531 10530 10524 10517 10516 10514 10509 10507 10505 10504 10502 10498 10494 10489 10485 10482
10472 10474 10479 10484 10486 10488 10491 10492 10492 10495 10501 10505 10506 10511 10517 10521 10527 10531 10529 10528 10530 10533 10536 10539 10542 10542 10543 10546 10549 10551 10551 10551 10550 10553 10557 10559 10559 10558 10557 10557 10556 10554 10553 10552 10552 10551 10551 10554 10560 10561 10562 10564 10564 10561 10560 10560 10557 10556 10557 10557 10554 10552 10549 10544 10539 10535 10532 10523 10518 10524 10521 10509 10511 10515 10503 10496 10500 10498 10494 10492 10490 10491 10489 10485 10480 10475 10472 10468
10461 10464 10469 10472 10475 10478 10482 10485 10486 10488 10493 10495 10494 10499 10506 10510 10514 10517 10518 10518 10520 10523 10525 10526 10529 10532 10535 10538 10539 10538 10539 10538 10537 10541 10546 10548 10549 10548 10547 10546 10544 10543 10544 10543 10543 10543 10542 10545 10549 10549 10549 10551 10549 10546 10546 10547 10547 10547 10546 10547 10546 10541 10537 10535 10529 10525 10519 10504 10501 10510 10503 10491 10499 10499 10484 10480 10483 10481 10479 10478 10477 10476 10472 10467 10464 10461 10457 10452
10451 10457 10461 10461 10463 10467 10473 10477 10478 10479 10483 10484 10483 10487 10494 10498 10500 10503 10506 10508 10510 10512 10512 10513 10519 10524 10526 10526 10525 10524 10526 10526 10527 10532 10534 10534 10535 10535 10533 10532 10532 10534 10535 10534 10534 10533 10530 10535 10539 10535 10534 10538 10535 10531 10531 10531 10531 10533 10534 10536 10536 10531 10527 10523 10516 10510 10501 10487 10488 10494 10484 10480 10489 10485 10470 10465 10465 10464 10464 10464 10462 10459 10455 10451 10448 10443 10440 10435
10443 10448 10451 10453 10454 10458 10462 10465 10467 10469 10472 10473 10473 10477 10483 10487 10489 10491 10493 10494 10497 10501 10501 10504 10510 10512 10512 10512 10511 10511 10514 10516 10518 10521 10520 10519 10519 10518 10517 10518 10521 10524 10524 10522 10522 10520 10518 10523 10527 10522 10521 10524 10522 10519 10518 10516 10515 10516 10519 10523 10523 10519 10514 10507 10499 10494 10485 10476 10477 10475 10466 10471 10481 10470 10455 10451 10450 10449 10449 10448 10447 10444 10440 10437 10432 10427 10423 10418
10437 10439 10441 10443 10445 10448 10451 10453 10455 10457 10460 10461 10463 10468 10474 10477 10480 10481 10482 10481 10482 10486 10489 10493 10497 10497 10497 10498 10498 10501 10506 10506 10506 10507 10506 10504 10502 10502 10505 10508 10511 10512 10511 10510 10509 10506 10505 10508 10512 10510 10505 10508 10511 10507 10502 10501 10498 10497 10504 10512 10509 10502 10497 10491 10485 10480 10473 10466 10463 10455 10451 10462 10468 10454 10441 10439 10438 10435 10434 10433 10433 10431 10426 10422 10417 10412 10408 10403
10428 10430 10430 10433 10435 10436 10438 10441 10442 10444 10447 10450 10454 10459 10464 10468 10470 10471 10470 10469 10469 10471 10474 10478 10482 10483 10484 10485 10488 10495 10497 10493 10491 10493 10492 10489 10488 10490 10493 10498 10500 10499 10499 10498 10496 10495 10494 10494 10496 10494 10486 10489 10496 10490 10482 10482 10476 10477 10496 10505 10493 10484 10483 10479 10473 10468 10462 10454 10447 10441 10443 10450 10449 10438 10431 10429 10424 10420 10419 10418 10417 10415 10410 10404 10401 10397 10392 10387
10414 10417 10420 10422 10423 10424 10426 10428 10429 10431 10435 10441 10445 10449 10453 10456 10458 10457 10456 10457 10459 10461 10462 10463 10466 10467 10469 10473 10480 10485 10484 10478 10478 10480 10479 10477 10477 10477 10480 10484 10487 10486 10486 10487 10485 10484 10484 10482 10481 10477 10468 10469 10476 10472 10465 10459 10454 10469 10494 10495 10477 10472 10473 10468 10461 10456 10449 10440 10433 10432 10434 10434 10430 10425 10421 10417 10412 10409 10408 10405 10400 10397 10391 10385 10382 10380 10375 10369